• In Moldova, Republic
  • List of Countries
  • For 7 days
  • Water Temperature
  • Satellite Maps
  • Weather Map
  • Weather Widgets
  • user-avatar
    Login

    Hourly Weather Salzburg

    Today, 21 February, Tuesday

    Time Temperature Precipitation Wind Pressure Humidity
    00:00 -5°C° 0.3 mm 2 mps 624 mmHg 88%
    01:00 -4°C° 0 mm 2 mps 624 mmHg 88%
    02:00 -4°C° 0.7 mm 2 mps 624 mmHg 91%
    03:00 -3°C° 0.7 mm 2 mps 624 mmHg 93%
    04:00 -3°C° 0.7 mm 2 mps 624 mmHg 95%
    05:00 -2°C° 0.7 mm 2 mps 624 mmHg 96%
    06:00 -2°C° 0.7 mm 2 mps 624 mmHg 96%
    07:00 -2°C° 0.7 mm 2 mps 624 mmHg 97%
    08:00 -1°C° 0.7 mm 3 mps 624 mmHg 97%
    09:00 -1°C° 0.7 mm 3 mps 623 mmHg 97%
    10:00 -1°C° 0.7 mm 3 mps 623 mmHg 97%
    11:00 0°C° 1.1 mm 3 mps 623 mmHg 97%
    12:00 +1°C° 1.1 mm 2 mps 623 mmHg 98%
    13:00 +1°C° 1.1 mm 2 mps 623 mmHg 98%
    14:00 +1°C° 1.4 mm 2 mps 623 mmHg 98%
    15:00 -1°C° 1.4 mm 2 mps 623 mmHg 98%
    16:00 -1°C° 1.4 mm 2 mps 623 mmHg 98%
    17:00 -1°C° 1.3 mm 2 mps 623 mmHg 98%
    18:00 -1°C° 1.3 mm 2 mps 624 mmHg 98%
    19:00 -1°C° 1.3 mm 2 mps 624 mmHg 98%
    20:00 -1°C° 0.7 mm 2 mps 624 mmHg 98%
    21:00 -1°C° 0.7 mm 2 mps 624 mmHg 98%
    22:00 -1°C° 0.7 mm 2 mps 625 mmHg 98%
    23:00 -2°C° 0.2 mm 2 mps 624 mmHg 97%

    Tomorrow, 22 February, Wednesday

    Time Temperature Precipitation Wind Pressure Humidity
    00:00 -2°C° 0.2 mm 2 mps 624 mmHg 96%
    01:00 -2°C° 0.2 mm 2 mps 624 mmHg 96%
    02:00 -2°C° 0.1 mm 2 mps 624 mmHg 95%
    03:00 -3°C° 0.1 mm 2 mps 623 mmHg 94%
    04:00 -3°C° 0.1 mm 2 mps 623 mmHg 94%
    05:00 -3°C° 0.2 mm 2 mps 622 mmHg 93%
    06:00 -3°C° 0.2 mm 2 mps 622 mmHg 93%
    07:00 -3°C° 0.2 mm 2 mps 622 mmHg 92%
    08:00 -2°C° 0 mm 2 mps 622 mmHg 93%
    09:00 -1°C° 0 mm 2 mps 623 mmHg 94%
    10:00 +1°C° 0 mm 2 mps 623 mmHg 95%
    11:00 +1°C° 0 mm 2 mps 623 mmHg 94%
    12:00 +2°C° 0 mm 2 mps 623 mmHg 94%
    13:00 +2°C° 0 mm 2 mps 623 mmHg 93%
    14:00 +2°C° 0 mm 2 mps 623 mmHg 94%
    15:00 +2°C° 0 mm 2 mps 622 mmHg 94%
    16:00 +1°C° 0 mm 2 mps 622 mmHg 95%
    17:00 +1°C° 0 mm 2 mps 622 mmHg 95%
    18:00 -1°C° 0 mm 2 mps 622 mmHg 95%
    19:00 -2°C° 0 mm 2 mps 622 mmHg 96%
    20:00 -3°C° 0 mm 2 mps 622 mmHg 95%
    21:00 -3°C° 0 mm 2 mps 622 mmHg 94%
    22:00 -3°C° 0 mm 2 mps 622 mmHg 92%
    23:00 -3°C° 0.1 mm 2 mps 622 mmHg 92%

    Day after tomorrow, 23 February, Thursday

    Time Temperature Precipitation Wind Pressure Humidity
    00:00 -2°C° 0.1 mm 2 mps 622 mmHg 91%
    01:00 -2°C° 0.1 mm 2 mps 622 mmHg 90%
    02:00 -3°C° 0 mm 2 mps 621 mmHg 89%
    03:00 -3°C° 0 mm 2 mps 621 mmHg 88%
    04:00 -4°C° 0 mm 2 mps 621 mmHg 86%
    05:00 -4°C° 0 mm 2 mps 620 mmHg 84%
    06:00 -4°C° 0 mm 2 mps 620 mmHg 82%
    07:00 -5°C° 0 mm 2 mps 620 mmHg 80%
    08:00 -3°C° 0 mm 2 mps 620 mmHg 82%
    09:00 -1°C° 0 mm 2 mps 621 mmHg 84%
    10:00 +1°C° 0 mm 2 mps 621 mmHg 85%
    11:00 +2°C° 0 mm 2 mps 621 mmHg 85%
    12:00 +2°C° 0 mm 2 mps 620 mmHg 85%
    13:00 +3°C° 0 mm 2 mps 620 mmHg 85%
    14:00 +3°C° 0 mm 2 mps 619 mmHg 86%
    15:00 +2°C° 0 mm 2 mps 619 mmHg 88%
    16:00 +2°C° 0 mm 2 mps 618 mmHg 90%
    17:00 +1°C° 0 mm 2 mps 618 mmHg 91%
    18:00 -1°C° 0 mm 2 mps 618 mmHg 92%
    19:00 -2°C° 0 mm 2 mps 617 mmHg 93%
    20:00 -3°C° 0 mm 2 mps 617 mmHg 92%
    21:00 -3°C° 0 mm 2 mps 617 mmHg 92%
    22:00 -3°C° 0 mm 2 mps 617 mmHg 92%
    23:00 -3°C° 0 mm 2 mps 616 mmHg 91%

    24 February, Friday

    Time Temperature Precipitation Wind Pressure Humidity
    00:00 -3°C° 0 mm 2 mps 616 mmHg 91%
    01:00 -5°C° 0 mm 3 mps 616 mmHg 91%
    02:00 -5°C° 0.1 mm 3 mps 615 mmHg 92%
    03:00 -3°C° 0.1 mm 2 mps 615 mmHg 92%
    04:00 -3°C° 0.1 mm 2 mps 615 mmHg 92%
    05:00 -4°C° 0.8 mm 2 mps 615 mmHg 94%
    06:00 -4°C° 0.8 mm 2 mps 615 mmHg 95%
    07:00 -4°C° 0.8 mm 2 mps 615 mmHg 97%
    08:00 -4°C° 0.9 mm 2 mps 616 mmHg 96%
    09:00 -5°C° 0.9 mm 3 mps 616 mmHg 96%
    10:00 -5°C° 0.9 mm 3 mps 616 mmHg 96%
    11:00 -5°C° 0.6 mm 3 mps 616 mmHg 94%
    12:00 -5°C° 0.6 mm 4 mps 616 mmHg 93%
    13:00 -5°C° 0.6 mm 4 mps 616 mmHg 92%
    14:00 -5°C° 0.2 mm 3 mps 616 mmHg 92%
    15:00 -5°C° 0.2 mm 3 mps 616 mmHg 91%
    16:00 -4°C° 0.2 mm 2 mps 616 mmHg 91%
    17:00 -5°C° 0.8 mm 2 mps 616 mmHg 92%
    18:00 -7°C° 0.8 mm 3 mps 616 mmHg 94%
    19:00 -7°C° 0.8 mm 3 mps 617 mmHg 96%
    20:00 -8°C° 1 mm 3 mps 617 mmHg 96%
    21:00 -8°C° 1 mm 3 mps 618 mmHg 96%
    22:00 -8°C° 1 mm 3 mps 619 mmHg 97%
    23:00 -8°C° 0.7 mm 3 mps 620 mmHg 97%

    25 February, Saturday

    Time Temperature Precipitation Wind Pressure Humidity
    00:00 -9°C° 0.7 mm 3 mps 620 mmHg 97%
    01:00 -9°C° 0.7 mm 3 mps 621 mmHg 97%
    02:00 -9°C° 0.2 mm 3 mps 621 mmHg 97%
    03:00 -10°C° 0.2 mm 3 mps 622 mmHg 97%
    04:00 -9°C° 0.2 mm 2 mps 622 mmHg 96%
    05:00 -9°C° 0.2 mm 2 mps 622 mmHg 96%
    06:00 -10°C° 0.2 mm 2 mps 623 mmHg 96%
    07:00 -10°C° 0.2 mm 2 mps 623 mmHg 96%
    08:00 -8°C° 0.1 mm 2 mps 624 mmHg 94%
    09:00 -6°C° 0.1 mm 2 mps 624 mmHg 93%
    10:00 -5°C° 0.1 mm 2 mps 625 mmHg 92%
    11:00 -4°C° 0.1 mm 2 mps 625 mmHg 93%
    12:00 -2°C° 0.1 mm 2 mps 625 mmHg 93%
    13:00 +1°C° 0.1 mm 1 mps 625 mmHg 93%
    14:00 -1°C° 0.4 mm 2 mps 625 mmHg 95%
    15:00 -1°C° 0.4 mm 2 mps 624 mmHg 96%
    16:00 -1°C° 0.4 mm 2 mps 624 mmHg 97%
    17:00 -2°C° 0.9 mm 2 mps 624 mmHg 97%
    18:00 -2°C° 0.9 mm 2 mps 624 mmHg 97%
    19:00 -2°C° 0.9 mm 2 mps 624 mmHg 96%
    20:00 -2°C° 1.8 mm 2 mps 624 mmHg 97%
    21:00 -2°C° 1.8 mm 2 mps 625 mmHg 97%
    22:00 -2°C° 1.8 mm 2 mps 625 mmHg 97%
    23:00 -2°C° 1 mm 2 mps 625 mmHg 97%

    26 February, Sunday

    Time Temperature Precipitation Wind Pressure Humidity
    00:00 -2°C° 1 mm 2 mps 625 mmHg 97%
    01:00 -1°C° 1 mm 2 mps 625 mmHg 97%
    02:00 -1°C° 0.3 mm 2 mps 625 mmHg 96%
    03:00 -1°C° 0.3 mm 2 mps 625 mmHg 95%
    04:00 -1°C° 0.3 mm 2 mps 625 mmHg 95%
    05:00 -2°C° 0.1 mm 2 mps 625 mmHg 94%
    06:00 -2°C° 0.1 mm 2 mps 626 mmHg 94%
    07:00 -2°C° 0.1 mm 2 mps 626 mmHg 94%
    08:00 -1°C° 0 mm 2 mps 626 mmHg 95%
    09:00 -1°C° 0 mm 2 mps 626 mmHg 96%
    10:00 +1°C° 0 mm 2 mps 627 mmHg 97%
    11:00 +1°C° 0 mm 2 mps 627 mmHg 96%
    12:00 +2°C° 0 mm 2 mps 627 mmHg 95%
    13:00 +3°C° 0 mm 1 mps 627 mmHg 94%
    14:00 +3°C° 0 mm 1 mps 627 mmHg 95%
    15:00 +3°C° 0 mm 1 mps 626 mmHg 95%
    16:00 +3°C° 0 mm 1 mps 626 mmHg 95%
    17:00 +1°C° 0 mm 1 mps 626 mmHg 95%
    18:00 -1°C° 0 mm 1 mps 625 mmHg 95%
    19:00 -3°C° 0 mm 1 mps 624 mmHg 94%
    20:00 -3°C° 0 mm 1 mps 624 mmHg 92%
    21:00 -3°C° 0 mm 1 mps 624 mmHg 90%
    22:00 -5°C° 0 mm 2 mps 624 mmHg 87%
    23:00 -4°C° 0 mm 2 mps 624 mmHg 86%
    Show more